BUS_NAME,NETWORK_OPERATOR_ID,CONNECTION_TYPE,PARTY,UNIT_OF_MEASURE,FLOW,STATUS,MD_DATE,TP1,TP2,TP3,TP4,TP5,TP6,TP7,TP8,TP9,TP10,TP11,TP12,TP13,TP14,TP15,TP16,TP17,TP18,TP19,TP20,TP21,TP22,TP23,TP24,TP25,TP26,TP27,TP28,TP29,TP30,TP31,TP32,TP33,TP34,TP35,TP36,TP37,TP38,TP39,TP40,TP41,TP42,TP43,TP44,TP45,TP46,TP47,TP48,TP49,TP50,CHECKSUM
MAN2201,ECNZ,GG,ECNZ,kWh,I,F,01/03/1999,49510,49570,49680,49770,49870,33070,25380,25380,0,0,0,0,8490,50340,87820,132080,88450,89630,96350,92830,92620,88020,84940,78870,108010,90040,82940,75010,70310,64120,86990,97510,111520,119990,117160,149060,114480,85840,80390,50290,49500,51110,92950,55880,64420,50640,50610,50490,3291930
MAN2201,ECNZ,GG,ECNZ,kWh,I,F,02/03/1999,60370,72600,57060,57010,50230,79810,50710,50340,50440,50460,50530,50570,62940,81480,115590,102070,152880,108010,112220,111950,102440,84380,84110,100790,139570,132930,135320,131420,126340,136320,129400,106890,97070,101730,105320,100380,90860,78780,82960,78410,75160,93890,93030,71070,67370,63850,64830,64250,4266140
MAN2201,ECNZ,GG,ECNZ,kWh,I,F,03/03/1999,64300,63420,55600,54770,54900,51960,44570,44480,44430,45050,44930,44710,57330,81950,99090,117480,132240,132600,128650,120670,112550,104880,78100,101080,102210,73300,65660,79010,79330,67490,73950,73570,72900,75140,87360,84540,73920,64040,62010,58330,59180,71160,94820,93980,96020,65570,73280,63630,3690140
MAN2201,ECNZ,GG,ECNZ,kWh,I,F,04/03/1999,80150,71310,54610,47550,47580,47990,48640,48670,48820,48950,48910,48810,53990,87220,128400,117370,129000,131400,113060,119090,100370,114150,107080,103130,99840,93680,102030,99540,99120,94080,91010,96750,83290,97450,99300,99080,94650,80260,67770,57750,83030,100700,99720,99210,97800,61940,83490,70020,4097760
MAN2201,ECNZ,GG,ECNZ,kWh,I,F,05/03/1999,90890,51180,49410,49000,49220,49390,49490,49560,49670,49720,49870,49880,56450,50490,92220,117420,126890,127640,155780,157620,164630,140720,161180,146480,107790,98870,98520,98130,98480,90300,81530,104230,105030,107030,115240,114930,100840,98170,89670,81560,102950,69650,102760,75830,86100,62280,73650,57730,4356070
MAN2201,ECNZ,GG,ECNZ,kWh,I,F,06/03/1999,49070,48600,48770,48770,48970,48970,48610,48540,48710,33240,43520,43900,50040,50050,50130,50310,50450,53950,59640,60000,59940,56740,123360,124240,124550,124430,124210,123490,123010,123830,123900,123900,124050,124180,124330,124500,66900,49530,49540,49630,49620,49680,49590,48470,49490,49490,49410,49370,3447620
MAN2201,ECNZ,GG,ECNZ,kWh,I,F,07/03/1999,48620,48280,48270,48660,48710,48760,47860,48010,48730,48160,48910,49100,49200,49330,49340,49360,49550,49620,112880,123790,123710,123690,123610,123510,123330,123100,122960,122870,122410,121620,122340,122470,121790,53920,48690,48800,48970,49070,49210,49340,48940,48810,48870,48860,49110,49560,49430,49380,3453510
MAN2201,ECNZ,GG,ECNZ,kWh,I,F,08/03/1999,48850,48610,48550,48470,48760,48550,48830,48770,48370,48170,48310,48660,48250,52240,120310,103150,59950,61880,75700,102710,101520,143220,144990,116710,115990,107360,128870,147380,141160,134760,146140,146140,147100,108440,137620,140730,102770,93770,82770,3000,12270,15170,12280,10150,9110,7800,7870,8670,3680850
MAN2201,ECNZ,GG,ECNZ,kWh,I,F,09/03/1999,72090,74210,74660,74870,74940,74320,74460,74490,74460,74450,74510,74470,74550,74610,124650,126840,125570,125680,125750,125750,125840,125850,125130,125420,125420,125410,125320,125150,125130,124970,124940,124820,124700,124550,124220,124510,124260,124770,124850,124960,125040,77840,74650,74690,75200,75270,75710,75650,4949600
MAN2201,ECNZ,GG,ECNZ,kWh,I,F,10/03/1999,121420,128670,128360,113940,100830,98650,74610,74570,74640,74550,74530,110970,124190,124360,124460,124530,124590,124730,124800,124800,124990,125040,125130,125130,125030,125220,125010,124980,124870,124860,124780,124670,124470,124440,124390,124380,124370,124340,124460,124580,124600,124680,109690,95830,110200,74960,75830,75500,5458630
MAN2201,ECNZ,GG,ECNZ,kWh,I,F,11/03/1999,121650,124650,124680,124810,124450,124770,89360,86820,82720,82450,120550,122760,122690,122610,122800,122590,122720,123260,123530,123620,123830,123900,123990,123980,124040,124080,143190,129050,123860,123450,123860,132580,130490,124340,141000,142820,127480,123940,123730,90110,76700,73770,74000,74230,74580,75180,75270,75650,5436590
MAN2201,ECNZ,GG,ECNZ,kWh,I,F,12/03/1999,123460,124350,124040,124680,117070,96770,113410,97470,83760,52750,49140,67200,121030,124300,124460,124400,124410,124430,124500,124660,124750,124860,125000,124850,125120,125160,125260,125010,125300,125220,125280,125170,125090,125020,124890,124820,124710,124670,76570,74460,74460,74390,74440,74420,74400,73860,74000,63040,5150510
MAN2201,ECNZ,GG,ECNZ,kWh,I,F,13/03/1999,49180,49040,49070,49610,49990,49720,49190,49250,49050,49430,49450,48730,48500,48890,115520,123230,124220,124120,124170,124180,124360,124990,125680,125750,125940,125440,124750,124530,124300,123910,124520,124650,124110,123890,123550,124220,124380,124280,53200,46870,47660,48140,48150,47950,47810,48910,48940,49050,4154470
MAN2201,ECNZ,GG,ECNZ,kWh,I,F,14/03/1999,49060,49170,49260,49330,49320,49220,49310,49340,49300,49310,48600,48670,48990,48900,121960,124670,124670,124610,124620,124510,124540,124660,124670,124870,125000,125030,125240,125450,125480,125580,125590,125470,125420,125450,125350,125390,125290,125170,60050,50390,50200,49720,49540,49410,49800,50060,49310,49590,4194540
MAN2201,ECNZ,GG,ECNZ,kWh,I,F,15/03/1999,49450,49350,49830,49640,49830,50320,50680,49980,50500,49940,50450,49440,50530,62870,125030,124400,135440,161880,157300,137770,124520,125650,125720,125490,137020,150150,151260,151990,152050,151550,152410,151880,151600,184090,130530,124040,123380,122510,54620,47670,49430,49900,50150,50180,50150,50190,50200,50270,4593230
MAN2201,ECNZ,GG,ECNZ,kWh,I,F,16/03/1999,143740,173710,173040,173380,173810,173800,173940,173930,173990,174020,173700,173790,174610,174900,174860,130970,125940,125740,125540,125360,125210,125180,125190,125130,125260,125420,125650,125800,125900,126130,126270,126380,126470,126540,126520,126380,126030,125950,165620,177100,176970,176760,176440,176220,176160,175860,175760,175750,7230820
MAN2201,ECNZ,GG,ECNZ,kWh,I,F,17/03/1999,129590,124980,125210,125360,125360,125770,125980,126180,126260,126410,126380,126470,126460,160690,162570,162420,162340,162190,161880,161710,161440,161300,161120,161050,161020,161150,161280,161510,161770,162020,162330,162550,162610,162600,162800,162670,162040,161870,162340,162600,162370,162270,162040,162670,129910,124150,123950,123800,7163440
MAN2201,ECNZ,GG,ECNZ,kWh,I,F,18/03/1999,123820,123740,123660,124000,118130,126920,127180,127360,127490,127400,127600,127830,161360,162410,162460,162350,162270,162230,162070,161830,161600,161330,160990,160820,160630,160280,160390,160380,160770,160830,161590,161810,161920,162080,161660,162100,162230,162290,162300,162290,162100,161780,161870,162300,129240,126580,126100,125720,7186090
MAN2201,ECNZ,GG,ECNZ,kWh,I,F,19/03/1999,125700,125900,125820,125660,125390,125060,125800,126050,125960,125730,125980,126760,142960,163920,163860,163720,162820,163440,163680,163530,164090,163830,163540,163180,162950,162750,162830,162730,162400,162340,162640,162890,163180,163480,163470,163900,163600,163290,162890,163670,163860,163840,163340,163370,137170,122650,121940,121890,7219450
MAN2201,ECNZ,GG,ECNZ,kWh,I,F,20/03/1999,121790,120960,124410,124240,123780,124440,124030,124830,125340,125590,125830,125410,125620,126260,126340,126360,126370,126370,126140,126040,126100,125920,125720,125510,142590,117780,99790,99660,99700,99710,73270,72430,47130,45650,45670,48540,49240,49310,49470,48900,48520,48840,48940,48830,48780,48160,48430,48630,4581370
MAN2201,ECNZ,GG,ECNZ,kWh,I,F,21/03/1999,48440,48080,48400,75810,76950,73940,75080,74700,75330,75090,75540,77050,130720,150310,128500,124130,124920,124840,124870,124850,124790,124620,124470,124160,123890,123680,123490,123440,123730,123760,123900,124130,124210,124330,124540,124600,124730,124670,124760,124230,124200,124570,124510,123080,74400,73840,72950,75550,74970,75100,5284850
MAN2201,ECNZ,GG,ECNZ,kWh,I,F,22/03/1999,129500,127260,125570,125600,125960,126000,125300,125630,126020,126700,126490,129070,176140,177660,177430,177190,176210,176300,176160,176210,176180,176060,174580,173930,173370,173460,173030,172290,172730,174020,157430,172580,173350,176980,198250,200050,176690,177840,196900,186150,175880,175770,126280,124960,124980,124900,124800,124470,7590310
MAN2201,ECNZ,GG,ECNZ,kWh,I,F,23/03/1999,124890,124620,124160,123810,123310,123300,123420,123330,123490,124050,124340,125880,178060,176230,203770,206050,200230,200240,200270,200260,177350,196820,189340,222500,223500,223350,222890,221760,221520,221430,221260,221240,221230,221350,221520,222100,222710,223170,223290,223420,223540,223580,223600,223700,223710,223730,223720,223690,9184730
MAN2201,ECNZ,GG,ECNZ,kWh,I,F,24/03/1999,223610,223440,223430,223030,222940,222760,222640,222510,222570,222500,222710,222710,222800,222840,223210,223370,223270,222480,221650,223710,222930,223210,223050,223500,214240,222260,222960,222620,221570,222490,221680,222240,222190,222070,221850,221300,221630,221780,221860,222310,222800,222960,223030,223210,223150,223080,222450,222120,10678720
MAN2201,ECNZ,GG,ECNZ,kWh,I,F,25/03/1999,223040,222400,222110,221980,221870,221690,222560,222500,222270,222240,222160,222170,222200,222250,222330,222480,222280,222360,222860,223020,223030,223130,223220,223180,223210,223110,223230,223130,223080,222960,222850,222730,222630,222400,222250,222110,221790,222090,220890,220200,220100,220560,253610,276980,276290,276840,276600,276020,10974990
MAN2201,ECNZ,GG,ECNZ,kWh,I,F,26/03/1999,276060,275980,276070,275700,276150,276010,275690,275140,274420,274830,274540,274320,274470,232920,225620,225180,225920,226110,226210,226440,226550,226690,226800,226810,226850,226860,229280,223440,219770,225260,213530,221240,224390,225210,224670,223930,224500,224680,224890,224750,224860,225150,270650,277180,276720,276820,277070,277170,11763500
MAN2201,ECNZ,GG,ECNZ,kWh,I,F,27/03/1999,277630,277290,277090,276320,277240,277110,277160,276930,277140,276690,276980,276590,267890,274480,274370,274740,275680,275680,275910,276050,276290,276450,276430,274580,274440,274690,274450,274140,273860,274040,274120,273900,273850,273810,274050,273720,273370,273560,273650,273800,273610,274270,274270,274310,273840,274150,274350,274270,13199240
MAN2201,ECNZ,GG,ECNZ,kWh,I,F,28/03/1999,274380,274730,274730,274550,274600,274640,274540,274540,274790,274670,274340,274290,261760,275900,275570,275670,275860,275770,275650,275800,275800,276280,276400,276550,276830,276660,276770,276430,276850,276490,276430,276370,277050,276890,276530,276740,276650,276570,276030,256090,272430,273210,273040,273160,273190,273380,273590,273560,13182750
MAN2201,ECNZ,GG,ECNZ,kWh,I,F,29/03/1999,291040,293230,293220,293200,293270,293380,293360,293230,293670,293310,293260,293270,285210,293120,292800,292630,292630,292830,276330,273400,273680,273780,272890,272950,273170,273360,273090,273210,287930,293060,292860,292840,292760,292740,292580,292590,292670,292680,292490,292830,292260,291940,291670,292110,291870,291520,291760,292480,13846160
MAN2201,ECNZ,GG,ECNZ,kWh,I,F,30/03/1999,292460,292160,292290,292460,292720,292720,292710,292680,292750,292720,292770,292690,292730,292590,292380,292110,292430,292200,292160,292000,291900,291890,292100,292050,292170,291820,292300,292820,292990,292620,292610,292690,292760,293350,293360,292480,292450,292390,292630,292880,292710,291890,291260,290980,290890,290780,290820,291030,14030350
MAN2201,ECNZ,GG,ECNZ,kWh,I,F,31/03/1999,291920,292210,291950,292150,292510,292520,292550,292600,292770,292910,292800,292780,292720,292580,292720,292660,292950,292830,292620,292470,292290,292140,292190,292280,292300,292490,292700,292910,293120,293360,293380,293500,293450,293150,292570,292860,293220,293440,292690,292420,292490,292460,292150,292070,291790,291760,291580,292250,14044230
MAN2201,ECNZ,GG,ECNZ,kWh,I,F,01/04/1999,292370,291780,291950,291160,292480,292690,292940,292890,292920,292860,293040,292860,292870,292900,292810,293090,293490,293600,293250,293160,292920,292960,292720,292270,291890,291960,292920,293120,292650,292870,292810,292900,293050,293740,293710,293340,293190,293100,292990,293060,293160,292880,292810,292690,292460,292250,292150,292340,14054020
MAN2201,MERI,GG,MERI,kWh,I,F,02/04/1999,292720,292760,292200,292520,292370,292350,292580,292630,292760,292420,292980,292400,293430,292450,292740,292600,293720,293870,277440,285010,293560,293400,293100,293030,293050,293030,293210,293340,293480,293850,293740,293130,293210,293140,293860,294200,293360,293020,293470,293110,293220,292880,293000,292750,292770,293500,293090,292070,14042520
MAN2201,MERI,GG,MERI,kWh,I,F,03/04/1999,293120,293180,292140,293330,293510,280870,293360,293660,294010,294130,294290,293770,293140,293900,294160,294360,294390,294320,294250,294220,293970,280720,293310,293280,293600,293500,293490,293500,293700,293490,293150,294100,294140,294340,294280,294220,294180,293590,293730,294220,294310,294320,294330,293740,293280,294110,293980,293800,14076490
MAN2201,MERI,GG,MERI,kWh,I,F,04/04/1999,293680,293330,293140,293000,293610,293810,293390,293650,293490,294280,294310,294280,293580,294080,294240,294260,294470,294480,294400,294410,294370,294370,294220,294050,293990,293740,293060,293180,293760,293990,294000,294210,293730,293880,293950,294530,294470,294390,293980,293740,294500,294470,273200,294500,294480,294410,293710,293280,14090050
MAN2201,MERI,GG,MERI,kWh,I,F,05/04/1999,293820,294000,293820,293530,293100,292900,294020,294100,293660,293840,293780,294280,294370,294060,293950,293880,294180,294580,294500,294620,294510,294450,294380,294300,293450,293340,293030,293760,292830,292990,293700,293970,293130,293750,293810,293880,294380,294390,294490,294300,293460,293990,294540,294580,293950,293440,293620,294260,14107670
MAN2201,MERI,GG,MERI,kWh,I,F,06/04/1999,294130,293900,292830,292740,293720,293610,293280,292910,293930,294040,293640,293440,293930,282050,279560,279110,279930,280050,280030,280000,280020,279740,279600,279480,278990,279570,279480,279280,279190,279060,278700,278760,279240,279320,279570,279710,284910,292210,291790,291660,291970,292440,292470,292480,279460,291280,291400,291850,13730460
MAN2201,MERI,GG,MERI,kWh,I,F,07/04/1999,291920,291730,291640,291110,291350,291210,291370,291520,291490,291610,291790,291850,292010,292070,292110,292240,292270,292230,292280,292190,292300,292110,292200,291570,278290,279020,278630,278110,278080,278580,278470,278360,278480,278580,278640,278820,278940,278130,278770,279080,279230,279210,279260,279400,279280,278660,279040,278810,13694040
MAN2201,MERI,GG,MERI,kWh,I,F,08/04/1999,278200,278500,278630,278650,278190,278370,277880,277620,278050,278270,277880,277540,278700,278840,279040,279140,278410,277200,277100,277200,277270,277200,277160,276990,277150,277280,276900,277030,276800,276850,276910,276580,276920,277050,277040,276940,277160,277660,277650,277710,277830,277850,277930,277880,277560,277780,277700,277730,13327920
MAN2201,MERI,GG,MERI,kWh,I,F,09/04/1999,277870,277820,277960,277590,277580,277540,277560,277390,256850,276990,277060,277110,277110,277170,277270,277380,277380,277350,277360,277500,277550,277590,277570,277570,277600,277170,276130,276760,277190,276550,276040,276960,276500,276180,276780,275920,276410,276570,276170,276090,276420,276350,276380,276500,276510,277110,277740,277900,13278050
MAN2201,MERI,GG,MERI,kWh,I,F,10/04/1999,277820,277620,277650,277780,277550,277480,277560,277540,277380,277430,277380,277250,277310,276690,277400,277380,277470,277660,277650,277820,277730,277850,277880,278100,278090,277910,278050,277910,277560,277080,277450,277680,277580,277070,276740,277530,277410,277340,277190,277240,277450,277570,276950,276850,277470,277560,277080,276320,13318460
MAN2201,MERI,GG,MERI,kWh,I,F,11/04/1999,277220,277660,277520,277570,277690,277130,277510,277560,276780,276580,277080,277120,276530,276400,276320,277100,277320,277240,277440,277370,277480,277580,277670,277690,277680,277710,277680,277740,277070,276740,277250,277250,277490,277210,276420,276430,276980,276170,276120,276760,276240,276180,276150,276800,276460,276680,277200,277260,13299230
MAN2201,MERI,GG,MERI,kWh,I,F,12/04/1999,277370,277400,277320,276990,276920,276550,276470,276840,277220,277290,276540,276950,276580,275940,276150,276460,276530,276540,276680,276750,276730,277100,277240,277210,277160,277490,276630,276440,277290,276580,276670,276940,277300,277270,277080,276430,276090,276330,276630,275140,234440,233030,233000,232980,233400,233690,233870,234040,12939690
MAN2201,MERI,GG,MERI,kWh,I,F,13/04/1999,234650,234680,234790,234820,234810,234800,234770,234660,232410,230350,230950,232090,275750,277630,277400,277420,277900,277720,277890,277940,278310,278440,278470,278570,278630,278950,278910,278750,278890,278730,278690,278720,278910,278070,278060,270300,278640,278000,277380,277180,236600,232750,232140,231840,232600,233020,232510,232780,12448270
MAN2201,MERI,GG,MERI,kWh,I,F,14/04/1999,233590,233920,234070,234210,234260,234230,233310,229790,225060,224800,225090,229240,274130,276240,277080,276860,276490,276010,276080,275770,276250,276500,276250,276910,277000,277270,277300,277710,277690,278030,279340,278510,278590,278520,277890,277730,277720,277600,277480,277100,276920,276700,276340,276060,276130,276270,276270,276570,12742880
MAN2201,MERI,GG,MERI,kWh,I,F,15/04/1999,276730,276950,277450,277580,277610,276930,277700,277550,277710,277770,277790,277550,277440,277340,277140,276870,276550,276410,276020,276320,276190,276150,276320,276440,276670,277010,277300,277310,277520,277680,277650,277720,277770,277630,277730,277790,277570,277500,277740,277340,277080,276730,276540,276090,275860,275680,275480,275540,13297440
MAN2201,MERI,GG,MERI,kWh,I,F,16/04/1999,275980,276250,276650,277040,277360,277630,277680,277890,277880,277920,277940,277980,278030,277860,277950,277740,277410,277060,276860,276550,276350,276080,276130,276080,276390,276630,276940,276230,233220,235680,275730,277820,273910,278620,278620,278620,278540,278650,278540,278550,278260,278130,277750,277580,277080,276920,276700,276730,13224140
MAN2201,MERI,GG,MERI,kWh,I,F,17/04/1999,276770,276900,277260,277620,277970,278160,279170,279320,279360,279390,279520,279380,279450,279370,279390,279370,279280,279190,278980,278750,278410,278030,277820,277620,277170,276950,277160,277460,277760,278080,278250,278530,278550,278520,278630,278600,278610,278540,278660,278570,278610,278440,278330,278230,277910,277710,277220,277140,13360110
MAN2201,MERI,GG,MERI,kWh,I,F,18/04/1999,276990,276840,277040,277210,277520,277350,278100,278310,278500,278560,278610,278540,278610,278570,278550,278570,278520,278410,278360,278120,278300,277930,277620,277420,277310,277080,277020,277480,277800,278240,278480,278700,278910,279090,279140,278520,278690,278590,278590,278590,278560,278570,278530,278430,278400,278200,277970,277680,13351120
MAN2201,MERI,GG,MERI,kWh,I,F,19/04/1999,277390,277170,277130,277160,277320,277470,277740,278100,278290,278420,278530,278570,278590,278580,278680,278540,278510,278590,278590,278550,278430,278430,278180,278030,277670,277430,277320,277200,277300,277270,277580,277880,278020,278330,278410,278430,278570,278590,278580,278530,278500,278530,278640,278460,278580,278420,278370,278140,13349740
MAN2201,MERI,GG,MERI,kWh,I,F,20/04/1999,277910,277560,277340,277080,277150,277090,277270,277500,277790,277880,278140,278370,278410,278430,278460,278390,278480,278540,278450,278490,278500,278440,278280,278200,278060,277690,238680,235800,263610,276840,276900,276930,277120,277420,277640,277730,277950,278020,278150,278170,278180,278150,278220,278330,278190,278240,278170,278120,13244460
MAN2201,MERI,GG,MERI,kWh,I,F,21/04/1999,277900,277610,277410,277310,277080,277000,276890,276990,277090,277270,277490,277800,278000,278130,278250,278340,278390,278360,278430,278490,278460,278390,278360,278300,278170,278100,277960,277690,277520,277430,277190,277270,277280,277420,277630,277760,277930,278080,278120,278390,276360,228640,270190,278350,278290,278330,278360,278210,13278410
MAN2201,MERI,GG,MERI,kWh,I,F,22/04/1999,278290,278130,278170,278080,277850,277370,277740,277490,277530,277660,277770,277890,278040,278150,278350,278410,278490,278480,278590,278510,278500,278740,278630,278580,278510,278570,278470,278470,278450,278220,278120,278060,278000,277870,277860,277930,278000,278210,278380,278290,278590,278680,278670,278730,278750,278900,278740,278680,13356590
MAN2201,MERI,GG,MERI,kWh,I,F,23/04/1999,278870,278730,278730,278760,278600,278610,278380,278360,278340,278100,278100,278130,278190,278280,278550,278580,278550,278700,278760,278740,278820,278910,278920,278840,278790,278380,235940,231940,231540,233180,272090,279500,279280,279060,278920,278760,278690,278760,278790,279000,279020,279170,279230,279360,279370,279460,279400,279440,13192620
MAN2201,MERI,GG,MERI,kWh,I,F,24/04/1999,279430,279450,279470,279490,279460,279380,279420,279190,279180,279020,278970,278880,278770,278840,278780,278960,279110,279150,279260,279430,279380,279470,279550,279570,279620,279620,279620,279660,279660,279620,279580,279550,279380,279380,279160,279030,278950,278890,278890,278890,278900,279090,279050,279320,279280,279460,279480,279530,13405220
MAN2201,MERI,GG,MERI,kWh,I,F,25/04/1999,279570,279550,279610,279640,279640,270570,277710,279410,279450,279330,279150,279060,278770,278740,278650,278640,278700,278900,278900,279030,279290,279290,279420,279440,279520,279630,279610,279560,279680,279540,279490,279670,279560,279330,279310,279060,279030,278890,278730,278760,278660,278690,278780,278860,279090,279270,279210,279450,13391840
MAN2201,MERI,GG,MERI,kWh,I,F,26/04/1999,279400,279440,279480,279590,279550,279560,279460,279630,279440,279460,279390,279230,279180,278910,278860,278690,278660,278490,278660,278700,278890,279110,279220,279300,279400,279570,279570,279530,279380,279490,279540,279380,279380,279320,279320,279160,279040,278860,278740,278600,278530,278440,278460,278490,278600,278750,278850,279030,13397730
MAN2201,MERI,GG,MERI,kWh,I,F,27/04/1999,279130,279160,279310,279300,279370,279370,279330,279340,279340,279360,279240,279180,279130,279030,278810,278640,278520,278330,278430,278510,278570,278720,278920,279100,279190,279360,279510,279460,279340,279370,279600,279600,279510,279450,279450,279410,270110,278240,278980,278830,278690,278490,278340,278440,278500,278630,278710,278910,13384260
MAN2201,MERI,GG,MERI,kWh,I,F,28/04/1999,278970,279130,279240,279360,279460,279450,279480,279520,279450,279470,279390,279410,279390,279250,279200,279050,278890,278770,257310,252280,252330,252430,252630,252660,252890,253070,253190,253380,253430,253470,253440,253330,252960,237230,271760,278190,277960,278040,277910,277840,277740,277450,277330,277200,277180,277290,277310,277450,12943560
MAN2201,MERI,GG,MERI,kWh,I,F,29/04/1999,277560,277650,277880,277980,278010,277820,278180,278090,278190,278250,278190,278170,278120,278020,278000,277820,277690,277530,277310,277260,277190,277080,277070,277060,277470,277610,277760,277810,277990,278080,278060,278090,278070,278020,278040,277920,277960,278000,277810,277780,240220,238180,237980,237820,237620,237610,237600,237660,13017280
MAN2201,MERI,GG,MERI,kWh,I,F,30/04/1999,237770,237980,269530,269900,277320,278690,278760,278710,278790,278850,278790,278760,278730,278640,278680,278490,278430,278320,278180,277950,277800,277690,277660,277800,277780,278030,278120,278290,278470,278620,278780,278780,278780,278780,278830,278810,264370,274800,277810,277740,277650,277520,277330,277160,276980,276940,276700,276740,13236030
MAN2201,MERI,GG,MERI,kWh,I,F,01/05/1999,276860,276880,277140,277290,277460,277680,277760,277880,277890,277910,278000,277900,277940,277750,277740,277670,277570,277520,277360,277130,276990,276780,276750,276650,276630,276830,276860,277020,277180,277400,277620,277530,277620,277560,277600,277540,277560,277670,277690,277660,277640,277480,277410,277100,277050,276840,276660,276600,13313250